Météo par heure à Abadan

Ce jour, 3 Décembre, Jeudi

Heure Température Précipitation Vent Pression Humidité
00:00 +20°C° 0.6 mm 3 m/s 763 mmHg 86%
01:00 +20°C° 0.5 mm 2 m/s 763 mmHg 86%
02:00 +20°C° 0.5 mm 2 m/s 763 mmHg 86%
03:00 +19°C° 0.5 mm 2 m/s 763 mmHg 86%
04:00 +19°C° 0.2 mm 2 m/s 763 mmHg 87%
05:00 +20°C° 0.2 mm 1 m/s 763 mmHg 88%
06:00 +18°C° 0.2 mm 0 m/s 763 mmHg 89%
07:00 +19°C° 0.4 mm 0 m/s 763 mmHg 86%
08:00 +21°C° 0.4 mm 1 m/s 764 mmHg 83%
09:00 +22°C° 0.4 mm 1 m/s 764 mmHg 80%
10:00 +23°C° 0 mm 1 m/s 764 mmHg 76%
11:00 +21°C° 0 mm 0 m/s 763 mmHg 72%
12:00 +22°C° 0 mm 0 m/s 763 mmHg 67%
13:00 +23°C° 0 mm 0 m/s 763 mmHg 66%
14:00 +23°C° 0 mm 0 m/s 763 mmHg 64%
15:00 +23°C° 0 mm 0 m/s 762 mmHg 63%
16:00 +23°C° 0 mm 0 m/s 762 mmHg 67%
17:00 +23°C° 0 mm 0 m/s 763 mmHg 70%
18:00 +22°C° 0 mm 0 m/s 763 mmHg 74%
19:00 +24°C° 0 mm 1 m/s 763 mmHg 76%
20:00 +23°C° 0 mm 1 m/s 763 mmHg 77%
21:00 +23°C° 0 mm 1 m/s 763 mmHg 78%
22:00 +23°C° 0 mm 1 m/s 762 mmHg 79%
23:00 +23°C° 0 mm 1 m/s 762 mmHg 79%

Demain, 4 Décembre, Vendredi

Heure Température Précipitation Vent Pression Humidité
00:00 +23°C° 0 mm 1 m/s 762 mmHg 80%
01:00 +21°C° 0 mm 2 m/s 762 mmHg 79%
02:00 +21°C° 0 mm 2 m/s 762 mmHg 78%
03:00 +21°C° 0 mm 3 m/s 761 mmHg 77%
04:00 +21°C° 0.1 mm 3 m/s 762 mmHg 77%
05:00 +20°C° 0.1 mm 2 m/s 762 mmHg 78%
06:00 +20°C° 0.1 mm 2 m/s 762 mmHg 78%
07:00 +21°C° 0.1 mm 2 m/s 762 mmHg 75%
08:00 +21°C° 0.1 mm 2 m/s 762 mmHg 71%
09:00 +23°C° 0.1 mm 1 m/s 763 mmHg 67%
10:00 +24°C° 0 mm 1 m/s 762 mmHg 64%
11:00 +25°C° 0 mm 1 m/s 762 mmHg 60%
12:00 +25°C° 0 mm 1 m/s 762 mmHg 56%
13:00 +26°C° 0.1 mm 1 m/s 762 mmHg 55%
14:00 +26°C° 0.1 mm 1 m/s 761 mmHg 54%
15:00 +26°C° 0.1 mm 1 m/s 761 mmHg 53%
16:00 +26°C° 0 mm 1 m/s 761 mmHg 57%
17:00 +25°C° 0 mm 1 m/s 761 mmHg 61%
18:00 +25°C° 0 mm 1 m/s 761 mmHg 65%
19:00 +24°C° 0 mm 2 m/s 761 mmHg 67%
20:00 +24°C° 0 mm 2 m/s 761 mmHg 69%
21:00 +23°C° 0 mm 2 m/s 761 mmHg 72%
22:00 +22°C° 0 mm 3 m/s 761 mmHg 71%
23:00 +22°C° 0 mm 3 m/s 761 mmHg 70%

Après-demain, 5 Décembre, Samedi

Heure Température Précipitation Vent Pression Humidité
00:00 +21°C° 0 mm 3 m/s 761 mmHg 69%
01:00 +21°C° 0 mm 3 m/s 761 mmHg 68%
02:00 +20°C° 0 mm 3 m/s 761 mmHg 67%
03:00 +20°C° 0 mm 3 m/s 760 mmHg 66%
04:00 +20°C° 0 mm 2 m/s 760 mmHg 66%
05:00 +20°C° 0 mm 2 m/s 760 mmHg 66%
06:00 +19°C° 0 mm 2 m/s 760 mmHg 67%
07:00 +20°C° 0 mm 2 m/s 761 mmHg 63%
08:00 +21°C° 0 mm 2 m/s 761 mmHg 60%
09:00 +23°C° 0 mm 2 m/s 761 mmHg 57%
10:00 +23°C° 0 mm 2 m/s 760 mmHg 55%
11:00 +24°C° 0 mm 2 m/s 760 mmHg 52%
12:00 +25°C° 0 mm 2 m/s 759 mmHg 50%
13:00 +25°C° 0 mm 2 m/s 759 mmHg 50%
14:00 +25°C° 0 mm 2 m/s 758 mmHg 49%
15:00 +25°C° 0 mm 2 m/s 758 mmHg 49%
16:00 +25°C° 0 mm 2 m/s 758 mmHg 51%
17:00 +24°C° 0 mm 2 m/s 758 mmHg 54%
18:00 +24°C° 0 mm 2 m/s 758 mmHg 57%
19:00 +24°C° 0.1 mm 2 m/s 759 mmHg 56%
20:00 +23°C° 0.1 mm 2 m/s 759 mmHg 56%
21:00 +23°C° 0.1 mm 2 m/s 759 mmHg 56%
22:00 +21°C° 0.3 mm 3 m/s 759 mmHg 60%
23:00 +20°C° 0.3 mm 4 m/s 759 mmHg 65%

6 Décembre, Dimanche

Heure Température Précipitation Vent Pression Humidité
00:00 +19°C° 0.3 mm 4 m/s 759 mmHg 69%
01:00 +19°C° 0.4 mm 5 m/s 759 mmHg 71%
02:00 +19°C° 0.4 mm 6 m/s 759 mmHg 73%
03:00 +17°C° 0.4 mm 7 m/s 759 mmHg 75%
04:00 +17°C° 0 mm 6 m/s 759 mmHg 78%
05:00 +17°C° 0 mm 5 m/s 760 mmHg 80%
06:00 +18°C° 0 mm 3 m/s 760 mmHg 82%
07:00 +18°C° 0 mm 4 m/s 760 mmHg 80%
08:00 +18°C° 0 mm 4 m/s 761 mmHg 78%
09:00 +19°C° 0 mm 5 m/s 761 mmHg 76%
10:00 +20°C° 0 mm 5 m/s 761 mmHg 71%
11:00 +21°C° 0 mm 5 m/s 761 mmHg 65%
12:00 +21°C° 0 mm 5 m/s 760 mmHg 59%
13:00 +22°C° 0 mm 5 m/s 760 mmHg 57%
14:00 +22°C° 0 mm 5 m/s 760 mmHg 54%
15:00 +22°C° 0 mm 5 m/s 759 mmHg 52%
16:00 +21°C° 0 mm 5 m/s 760 mmHg 53%
17:00 +21°C° 0 mm 4 m/s 760 mmHg 54%
18:00 +20°C° 0 mm 4 m/s 760 mmHg 55%
19:00 +20°C° 0 mm 4 m/s 761 mmHg 53%
20:00 +19°C° 0 mm 4 m/s 761 mmHg 52%
21:00 +19°C° 0 mm 4 m/s 761 mmHg 51%
22:00 +19°C° 0 mm 4 m/s 761 mmHg 52%
23:00 +18°C° 0 mm 4 m/s 761 mmHg 53%

7 Décembre, Lundi

Heure Température Précipitation Vent Pression Humidité
00:00 +18°C° 0 mm 4 m/s 761 mmHg 54%
01:00 +17°C° 0 mm 4 m/s 761 mmHg 55%
02:00 +17°C° 0 mm 4 m/s 762 mmHg 56%
03:00 +17°C° 0 mm 4 m/s 762 mmHg 57%
04:00 +15°C° 0 mm 4 m/s 762 mmHg 58%
05:00 +16°C° 0 mm 3 m/s 762 mmHg 59%
06:00 +16°C° 0 mm 3 m/s 762 mmHg 60%
07:00 +17°C° 0 mm 4 m/s 763 mmHg 56%
08:00 +17°C° 0 mm 4 m/s 763 mmHg 52%
09:00 +17°C° 0 mm 5 m/s 764 mmHg 47%
10:00 +19°C° 0 mm 5 m/s 763 mmHg 44%
11:00 +20°C° 0 mm 6 m/s 763 mmHg 41%
12:00 +21°C° 0 mm 6 m/s 763 mmHg 37%
13:00 +21°C° 0 mm 6 m/s 763 mmHg 36%
14:00 +21°C° 0 mm 6 m/s 763 mmHg 35%
15:00 +21°C° 0 mm 6 m/s 763 mmHg 34%
16:00 +20°C° 0 mm 5 m/s 763 mmHg 37%
17:00 +20°C° 0 mm 4 m/s 763 mmHg 39%
18:00 +19°C° 0 mm 4 m/s 763 mmHg 42%
19:00 +18°C° 0 mm 4 m/s 763 mmHg 43%
20:00 +18°C° 0 mm 4 m/s 763 mmHg 43%
21:00 +17°C° 0 mm 4 m/s 764 mmHg 43%
22:00 +17°C° 0 mm 4 m/s 764 mmHg 45%
23:00 +17°C° 0 mm 4 m/s 764 mmHg 46%

8 Décembre, Mardi

Heure Température Précipitation Vent Pression Humidité
00:00 +15°C° 0 mm 4 m/s 764 mmHg 48%
01:00 +15°C° 0 mm 4 m/s 764 mmHg 49%
02:00 +14°C° 0 mm 4 m/s 764 mmHg 49%
03:00 +14°C° 0 mm 4 m/s 764 mmHg 50%
04:00 +14°C° 0 mm 4 m/s 764 mmHg 51%
05:00 +14°C° 0 mm 3 m/s 764 mmHg 51%
06:00 +13°C° 0 mm 3 m/s 764 mmHg 52%
07:00 +14°C° 0 mm 4 m/s 764 mmHg 49%
08:00 +15°C° 0 mm 4 m/s 765 mmHg 46%
09:00 +17°C° 0 mm 4 m/s 765 mmHg 43%
10:00 +17°C° 0 mm 5 m/s 765 mmHg 40%
11:00 +19°C° 0 mm 5 m/s 764 mmHg 36%
12:00 +20°C° 0 mm 5 m/s 764 mmHg 33%
13:00 +20°C° 0 mm 5 m/s 764 mmHg 31%
14:00 +21°C° 0 mm 5 m/s 764 mmHg 30%
15:00 +21°C° 0 mm 5 m/s 763 mmHg 29%
16:00 +20°C° 0 mm 4 m/s 764 mmHg 32%
17:00 +19°C° 0 mm 4 m/s 764 mmHg 35%
18:00 +18°C° 0 mm 3 m/s 764 mmHg 38%
19:00 +18°C° 0 mm 3 m/s 764 mmHg 39%
20:00 +17°C° 0 mm 3 m/s 764 mmHg 39%
21:00 +17°C° 0 mm 3 m/s 764 mmHg 40%
22:00 +16°C° 0 mm 3 m/s 764 mmHg 41%
23:00 +16°C° 0 mm 3 m/s 764 mmHg 42%
Voir plus

Nous avons besoin de votre consentement

Meteoprog et ses fournisseurs de services peuvent stocker et accéder à des données personnelles telles que des cookies, des identifiants d'appareils ou d'autres technologies similaires sur votre appareil et traiter ces données pour personnaliser le contenu et les publicités, ainsi que pour fournir des fonctionnalités de médias sociaux et analyser le trafic.

  • Stocker et/ou accéder à des informations sur votre appareil

    Des cookies, des identifiants d'appareils ou d'autres informations peuvent être stockés ou accessibles sur votre appareil aux fins indiquées ci-dessus.

  • Annonces et contenus personnalisés, mesure des annonces et des contenus, connaissance de l'audience et développement de produits

    Les annonces et le contenu peuvent être personnalisés en fonction d'un profil. D'autres données peuvent être ajoutées pour mieux personnaliser les annonces et le contenu. Les performances des publicités et du contenu peuvent être mesurées. Il est possible d'obtenir des informations sur le public qui a vu les publicités et le contenu. Ces données peuvent être utilisées pour développer ou améliorer l'expérience de l'utilisateur, les systèmes et les logiciels.

En cliquant sur "J'accepte", vous autorisez l'utilisation de cookies, des identifiants d'appareils, des balises web ou d'autres technologies similaires. Vos paramètres peuvent être modifiés dans le navigateur de votre appareil.

Dans certains cas, des intérêts légitimes peuvent être invoqués plutôt qu'un consentement. Vous pouvez en savoir plus à ce sujet dans notre Politique de confidentialité et de cookies.